Regional Weather Roundup
Issued by NWS Cleveland, OH

Home | Current Version | Previous Version | Text Only | Print | Product List | Glossary Off
Versions: 1 2 3 4 5 6 7 8 9 10 11 12 13 14 15 16 17 18 19 20 21 22 23 24 25 26 27 28 29 30 31 32 33 34 35 36 37 38 39 40 41 42 43 44 45 46 47 48 49 50

134
ASUS41 KCLE 250312
RWRCLE
OHIO REGIONAL WEATHER ROUNDUP
NATIONAL WEATHER SERVICE WILMINGTON, OH
1100 PM EDT SUN SEP 24 2017

NOTE: "FAIR" INDICATES FEW OR NO CLOUDS BELOW 12,000 FEET WITH NO
SIGNIFICANT WEATHER AND/OR OBSTRUCTIONS TO VISIBILITY.

OHZ001>008-015>018-024>027-034-035-043-044-250400-
   NORTHWEST OHIO

CITY           SKY/WX    TMP DP  RH WIND       PRES   REMARKS
DEFIANCE       FAIR      71  63  75 E5        30.08S
FINDLAY        FAIR      73  64  73 E3        30.07S
TOLEDO EXPRESS FAIR      70  68  93 E3        30.08S
TOLEDO EXEC    FAIR      73  67  81 E6        30.09S
LIMA           FAIR      67  60  78 NE6       30.08S
$$

OHZ009>014-019>023-028>033-038-089-250400-
   NORTHEAST OHIO

CITY           SKY/WX    TMP DP  RH WIND       PRES   REMARKS
CLE-HOPKINS    FAIR      77  67  71 CALM      30.11R
CLE-LAKEFRONT  FAIR      73  68  84 CALM      30.08S
CUY CO. ARPT   CLEAR     75  68  78 E6        30.11S
LORAIN-ELYRIA  FAIR      65  59  81 CALM      30.10S
ASHTABULA      FAIR      65  65 100 CALM      30.12S
AKRON-CANTON   FAIR      73  60  63 NE6       30.12R
WOOSTER        FAIR      64  61  90 CALM      30.11S
MANSFIELD      FAIR      71  61  70 SE3       30.11S
YOUNGSTOWN     FAIR      70  67  90 E5        30.12R
$$

OHZ042-051>053-060>062-070>072-077>081-250400-
  SOUTHWEST OHIO

CITY           SKY/WX    TMP DP  RH WIND       PRES   REMARKS
CINC-COVINGTON MOCLDY    75  55  49 E3        30.06S
CINC-LUNKEN    FAIR      65  62  90 CALM      30.06S
HAMILTON       FAIR      62  60  93 CALM      30.07R
DAYTON         FAIR      73  55  53 CALM      30.09S
WRIGHT-PAT AFB FAIR      67  61  83 CALM      30.07S
DAYTON GENERAL FAIR      66  56  70 NE6       30.07S
WILMINGTON     FAIR      67  61  81 CALM      30.08S
$$

OHZ036-037-039>041-045>050-054>059-063>069-073>076-082>088-250400-
  CENTRAL AND SOUTHEAST OHIO

CITY           SKY/WX    TMP DP  RH WIND       PRES   REMARKS
COLUMBUS       FAIR      72  65  78 CALM      30.07S
OSU AIRPORT    FAIR      71  64  78 CALM      30.08R
BOLTON FIELD   FAIR      66  63  88 CALM      30.08S
RICKENBACK AFB FAIR      69  64  83 NE5       30.06S
NEWARK         FAIR      65  63  93 CALM      30.08S
MARION         FAIR      69  60  73 CALM      30.09S
LANCASTER      FAIR      63  62  97 CALM      30.08F
ZANESVILLE     FAIR      70  63  78 CALM      30.08F
NEW PHILLY     FAIR      67  64  90 CALM      30.10S
$$




USA.gov is the U.S. government's official web portal to all federal, state and local government web resources and services.